Volver al catálogo

BREEZE-M DEB

ActivoHEO
NORAD 38600·DEBRIS·🇷🇺 Russia

Lanzado Mar 14, 2008 desde Baikonur Cosmodrome

Loading…

Próximos Pases (próximas 24 horas)

TLE

ActualizadoSource: Space-Track

Época: Sep 14, 2026, 04:22 UTC

1 38600U 08011AX  26257.18250186  .00000821  00000-0  14686-2 0  9998
2 38600  48.9084 148.4670 6542551  61.4846 348.6068  3.14936014177369

Sigue BREEZE-M DEB en tiempo real con AllMySat

Download on the App Store